Time+07,TemperatureF,Dew PointF,Humidity,Sea Level PressureIn,VisibilityMPH,Wind Direction,Wind SpeedMPH,Gust SpeedMPH,PrecipitationIn,Events,Conditions,WindDirDegrees,DateUTC
12:00 AM,82.4,75.2,79,29.74,6.2,WSW,4.6,-,N/A,,Mostly Cloudy,240,2013-08-06 17:00:00
12:30 AM,84.2,75.2,74,29.74,6.2,WSW,4.6,-,N/A,,Mostly Cloudy,240,2013-08-06 17:30:00
1:00 AM,82.4,77.0,84,29.74,6.2,WNW,3.5,-,N/A,,Mostly Cloudy,300,2013-08-06 18:00:00
1:30 AM,82.4,75.2,79,29.74,5.6,NW,3.5,-,N/A,,Mostly Cloudy,310,2013-08-06 18:30:00
2:00 AM,80.6,73.4,79,29.74,5.6,NNE,3.5,-,N/A,,Mostly Cloudy,20,2013-08-06 19:00:00
2:30 AM,80.6,73.4,79,29.71,5.6,NNE,3.5,-,N/A,,Mostly Cloudy,30,2013-08-06 19:30:00
3:00 AM,80.6,73.4,79,29.71,5.6,Calm,Calm,-,N/A,,Mostly Cloudy,0,2013-08-06 20:00:00
3:30 AM,80.6,73.4,79,29.71,5.6,Calm,Calm,-,N/A,,Mostly Cloudy,0,2013-08-06 20:30:00
4:00 AM,78.8,73.4,83,29.68,5.6,Calm,Calm,-,N/A,,Mostly Cloudy,0,2013-08-06 21:00:00
4:30 AM,78.8,73.4,83,29.68,5.6,Calm,Calm,-,N/A,,Mostly Cloudy,0,2013-08-06 21:30:00
5:00 AM,78.8,73.4,83,29.68,5.6,Calm,Calm,-,N/A,,Mostly Cloudy,0,2013-08-06 22:00:00
5:30 AM,78.8,73.4,83,29.71,5.6,Calm,Calm,-,N/A,,Mostly Cloudy,0,2013-08-06 22:30:00
6:00 AM,78.8,73.4,83,29.71,5.6,Calm,Calm,-,N/A,,Mostly Cloudy,0,2013-08-06 23:00:00
6:30 AM,78.8,73.4,83,29.71,5.6,Calm,Calm,-,N/A,,Mostly Cloudy,0,2013-08-06 23:30:00
7:00 AM,78.8,75.2,89,29.71,5.0,Calm,Calm,-,N/A,,Mostly Cloudy,0,2013-08-07 00:00:00
7:30 AM,80.6,75.2,84,29.74,5.0,Calm,Calm,-,N/A,,Mostly Cloudy,0,2013-08-07 00:30:00
8:00 AM,82.4,75.2,79,29.74,5.0,Calm,Calm,-,N/A,,Mostly Cloudy,0,2013-08-07 01:00:00
9:00 AM,86.0,75.2,70,29.74,6.2,NW,3.5,-,N/A,,Mostly Cloudy,320,2013-08-07 02:00:00
9:30 AM,89.6,73.4,59,29.74,6.2,NNE,4.6,-,N/A,,Mostly Cloudy,20,2013-08-07 02:30:00
10:00 AM,89.6,73.4,59,29.74,6.2,NNW,6.9,-,N/A,,Mostly Cloudy,330,2013-08-07 03:00:00
10:30 AM,91.4,73.4,55,29.74,6.2,West,4.6,-,N/A,,Mostly Cloudy,270,2013-08-07 03:30:00
11:00 AM,93.2,73.4,52,29.74,6.2,WNW,6.9,-,N/A,,Mostly Cloudy,290,2013-08-07 04:00:00
11:30 AM,91.4,75.2,59,29.74,6.2,WSW,4.6,-,N/A,,Mostly Cloudy,240,2013-08-07 04:30:00
12:00 PM,93.2,73.4,52,29.71,6.2,WSW,9.2,-,N/A,,Mostly Cloudy,250,2013-08-07 05:00:00
12:30 PM,91.4,71.6,52,29.71,6.2,WNW,4.6,-,N/A,,Mostly Cloudy,290,2013-08-07 05:30:00
1:00 PM,95.0,69.8,44,29.71,6.2,WSW,11.5,-,N/A,,Mostly Cloudy,240,2013-08-07 06:00:00
1:30 PM,93.2,71.6,49,29.68,6.2,West,9.2,-,N/A,,Mostly Cloudy,280,2013-08-07 06:30:00
2:00 PM,93.2,75.2,56,29.68,6.2,West,9.2,-,N/A,,Mostly Cloudy,260,2013-08-07 07:00:00
2:30 PM,91.4,73.4,55,29.68,6.2,SW,6.9,-,N/A,,Mostly Cloudy,230,2013-08-07 07:30:00
3:00 PM,91.4,73.4,55,29.68,6.2,WSW,6.9,-,N/A,,Mostly Cloudy,250,2013-08-07 08:00:00
3:30 PM,89.6,75.2,62,29.65,6.2,SW,9.2,-,N/A,,Mostly Cloudy,220,2013-08-07 08:30:00
4:00 PM,89.6,75.2,62,29.65,6.2,SSW,11.5,-,N/A,,Mostly Cloudy,200,2013-08-07 09:00:00
4:30 PM,87.8,75.2,66,29.65,6.2,SSW,11.5,-,N/A,,Mostly Cloudy,200,2013-08-07 09:30:00
5:00 PM,86.0,75.2,70,29.65,6.2,SSW,9.2,-,N/A,,Mostly Cloudy,200,2013-08-07 10:00:00
5:30 PM,86.0,75.2,70,29.68,6.2,SSW,11.5,-,N/A,,Mostly Cloudy,200,2013-08-07 10:30:00
6:00 PM,86.0,75.2,70,29.68,6.2,SSW,9.2,-,N/A,,Mostly Cloudy,200,2013-08-07 11:00:00
6:30 PM,84.2,75.2,74,29.68,5.6,SSW,9.2,-,N/A,,Mostly Cloudy,200,2013-08-07 11:30:00
7:00 PM,84.2,77.0,79,29.68,6.2,SSW,9.2,-,N/A,,Mostly Cloudy,210,2013-08-07 12:00:00
7:30 PM,84.2,77.0,79,29.71,5.6,SSW,9.2,-,N/A,,Mostly Cloudy,210,2013-08-07 12:30:00
8:00 PM,84.2,77.0,79,29.71,5.0,SSW,6.9,-,N/A,,Mostly Cloudy,200,2013-08-07 13:00:00
8:30 PM,84.2,77.0,79,29.71,5.0,SSW,6.9,-,N/A,,Mostly Cloudy,210,2013-08-07 13:30:00
9:00 PM,84.2,77.0,79,29.71,5.0,SSW,4.6,-,N/A,,Mostly Cloudy,210,2013-08-07 14:00:00
9:30 PM,84.2,78.8,84,29.71,5.0,SW,4.6,-,N/A,,Mostly Cloudy,230,2013-08-07 14:30:00
10:00 PM,84.2,73.4,70,29.74,5.0,WSW,4.6,-,N/A,,Mostly Cloudy,240,2013-08-07 15:00:00
10:30 PM,84.2,75.2,74,29.74,5.0,NNW,3.5,-,N/A,,Mostly Cloudy,330,2013-08-07 15:30:00
11:00 PM,84.2,75.2,74,29.77,5.0,West,3.5,-,N/A,,Mostly Cloudy,270,2013-08-07 16:00:00
11:30 PM,84.2,75.2,74,29.77,5.0,WNW,2.3,-,N/A,,Mostly Cloudy,290,2013-08-07 16:30:00